• Join FlightAware (Why Join?)
  • Login
  • US Flag 
12:35PM EST


 

Airport Tracker/Info


-or-


 

Live Flight TrackerFlight Track Log ✈ SKW5631 ✈ 03-May-2013 ✈ KSFO - KBFL

Flight Track Log - Related Links

Times and Time Zones

All times are in EDT time to prevent confusion due to time zone crossing. See the SKW5631 flight status page for this flight to view local times or setup timezone preferences in your user account.

Time Position Orientation Groundspeed Altitude Reporting Facility
EDT Latitude Longitude Course Direction KTS MPH feet Rate Location/Type
06:40PM 37.6333 -122.3667 67° East 136 157 800  Level Northern Cal TRACON
06:41PM 37.6500 -122.3167 67° East 177 204 1,900 1,212 Climbing Northern Cal TRACON
06:42PM 37.6839 -122.2831 38° Northeast 181 208 2,900 1,297 Climbing Oakland Center
06:43PM 37.7211 -122.2317 48° Northeast 190 219 4,300 1,317 Climbing Oakland Center
06:44PM 37.7347 -122.1653 75° East 197 227 5,600 1,268 Climbing Oakland Center
06:45PM 37.7461 -122.0958 78° East 201 231 6,900 1,366 Climbing Oakland Center
06:46PM 37.7622 -122.0269 74° East 205 236 8,400 1,415 Climbing Oakland Center
06:47PM 37.7758 -121.9536 77° East 212 244 9,800 1,338 Climbing Oakland Center
06:48PM 37.7833 -121.8667 84° East 210 242 11,300 1,239 Climbing Northern Cal TRACON
06:50PM 37.7431 -121.7267 110° East 225 259 13,600 1,085 Climbing Oakland Center
06:51PM 37.6919 -121.6769 142° Southeast 230 265 14,500 829 Climbing Oakland Center
06:52PM 37.6444 -121.6211 137° Southeast 231 266 15,300 878 Climbing Oakland Center
06:53PM 37.5986 -121.5644 136° Southeast 230 265 16,300 879 Climbing Oakland Center
06:54PM 37.5500 -121.5000 134° Southeast 235 270 17,000 789 Climbing Northern Cal TRACON
06:55PM 37.5000 -121.4500 142° Southeast 234 269 17,800 710 Climbing Northern Cal TRACON
06:57PM 37.4083 -121.3492 139° Southeast 232 267 19,200 625 Climbing Los Angeles Center
06:58PM 37.3519 -121.2658 130° Southeast 243 280 19,800 567 Climbing Oakland Center
06:59PM 37.3053 -121.2108 137° Southeast 252 290 20,400 537 Climbing Oakland Center
07:00PM 37.2558 -121.1506 136° Southeast 249 287 20,900 537 Climbing Oakland Center
07:01PM 37.1936 -121.0764 136° Southeast 256 295 21,500 541 Climbing Oakland Center
07:02PM 37.1417 -121.0139 136° Southeast 259 298 22,000 541 Climbing Oakland Center
07:03PM 37.0906 -120.9511 136° Southeast 257 296 22,600 488 Climbing Oakland Center
07:04PM 37.0386 -120.8897 137° Southeast 258 297 23,000 195 Climbing Oakland Center
07:05PM 36.9831 -120.8269 138° Southeast 267 307 23,000  Level Oakland Center
07:06PM 36.9239 -120.7567 136° Southeast 293 337 23,000  Level Oakland Center
07:07PM 36.8658 -120.6886 137° Southeast 290 334 23,000  Level Oakland Center
07:08PM 36.8042 -120.6142 136° Southeast 282 325 23,000  Level Oakland Center
07:09PM 36.7447 -120.5453 137° Southeast 287 330 23,000  Level Oakland Center
07:10PM 36.6872 -120.4772 136° Southeast 285 328 23,000  Level Oakland Center
07:11PM 36.6311 -120.4100 136° Southeast 288 331 23,000  Level Oakland Center
07:12PM 36.5736 -120.3414 136° Southeast 285 328 23,000 -443 Level Oakland Center
07:13PM 36.5136 -120.2719 137° Southeast 307 353 22,100 -1,230 Descending Oakland Center
07:14PM 36.4458 -120.1936 137° Southeast 331 381 20,500 -1,561 Descending Oakland Center
07:15PM 36.3650 -120.0992 137° Southeast 324 373 18,900 -1,512 Descending Oakland Center
07:16PM 36.3072 -120.0308 136° Southeast 290 334 17,400 -1,525 Descending Oakland Center
07:17PM 36.2519 -119.9692 138° Southeast 270 311 15,800 -1,512 Descending Oakland Center
07:18PM 36.1978 -119.9069 137° Southeast 265 305 14,300 -1,463 Descending Oakland Center
07:19PM 36.1461 -119.8472 137° Southeast 255 293 12,800 -1,426 Descending Oakland Center
07:20PM 36.0953 -119.7881 137° Southeast 251 289 11,400 -1,220 Descending Oakland Center
07:21PM 36.0453 -119.7311 137° Southeast 243 280 10,300 -1,073 Descending Oakland Center
07:22PM 35.9994 -119.6808 138° Southeast 224 258 9,200 -984 Descending Oakland Center
07:24PM 35.9561 -119.6328 138° Southeast 210 242 8,300 -732 Descending Oakland Center
07:25PM 35.9108 -119.5786 136° Southeast 216 249 7,700 -634 Descending Oakland Center
07:26PM 35.8544 -119.5144 137° Southeast 224 258 7,000 -344 Descending Oakland Center
07:27PM 35.8094 -119.4631 137° Southeast 224 258 7,000 -390 Level Oakland Center
07:28PM 35.7683 -119.4108 134° Southeast 220 253 6,200 -976 Descending Oakland Center
07:29PM 35.7281 -119.3569 133° Southeast 217 250 5,000 -1,131 Descending Oakland Center
07:30PM 35.6883 -119.3042 133° Southeast 214 246 3,900 -976 Descending Oakland Center
07:31PM 35.6492 -119.2550 134° Southeast 209 241 3,000 -439 Descending Oakland Center
07:32PM 35.6108 -119.2033 132° Southeast 206 237 3,000  Level Oakland Center
07:32PM 35.5956 -119.1831 133° Southeast 205 236 3,000  Level Los Angeles Center
07:33PM 35.5558 -119.1294 132° Southeast 207 238 3,000  Level Los Angeles Center
07:37PM 35.4642 -119.0706 151° Southeast  Level FlightAware Approximate